STARLINK-36708

Last updated on Tue Mar 10 2026 00:02:05 GMT+0000 (Coordinated Universal Time)

1 67713U 26025W 26068.58335648 -.01728715 00000+0 -32361-1 0 9991 2 67713 97.2840 180.1935 0001380 86.4272 342.7040 15.51890734 5901

Satellite not in orbit